Starlink 11552

operational
NORAD ID: 62907 Int'l Des: 2025-027 Owner: SPXS Country: US Constellation: starlink
LEOCIRCULAR

Starlink 11552について

説明を読み込み中...

リアルタイム位置

3D地球を読み込み中...

次回通過

高度履歴

Altitude vs Time

uPlot chart will show altitude changes over time

軌道要素

1 62907U 25027A 25303.67969931 .00384051 00000-0 28368-2 0 9993
2 62907 43.0004 51.4371 0002092 310.9664 49.1023 15.71037794 42740
Epoch: Oct 30, 2025 • Age: 19 hours

現在のステータス

高度 357.1 km
速度 7.70 km/s
衛星直下点 39.25°N, 96.21°W
打ち上げ日 Feb 8, 2025
運用期間 0.7 years
タイプ internet

技術仕様

分類 Payload
質量 960.00 kg
乾燥質量 910.00 kg
総質量 960.00 kg
長さ 0.30 m
直径 4.10 m
スパン 29.00 m
形状 Box + pan
製造者 SPXS
バスタイプ Starlink V2MD
フェーズステータス In Orbit
所有者/国 SPXS/US

大規模コンステレーション

Loading constellations...